Location: Unspecified
(43.4680°N, 87.1740°E)
Time: 20:33:48
(UTC+00:00)

Cosmos 1821 Rocket - Pass Details

Date: 17 April 2021
Orbit: 946 x 1004 km, 82.9° (Epoch: 11 May)

Event Time Altitude Azimuth Distance (km) Brightness Sun altitude
Rises 20:30:36 0° 353° (N) 3,697 7.6 -27.1°
Reaches altitude 10° 20:33:08 10° 356° (N) 2,753 6.9 -26.8°
Maximum altitude 20:39:28 72° 81° (E) 1,043 4.2 -26.1°
Enters shadow 20:42:33 32° 158° (SSE) 1,628 4.9 -25.7°
